OpenBCM V1.08-5-g2f4a (Linux)

Packet Radio Mailbox

IZ3LSV

[San Dona' di P. JN]

 Login: GUEST





  
I0OJJ  > KEPS     13.08.25 01:40l 320 Lines 15287 Bytes #52 (0) @ AMSAT
BID : ORB25225.1
Read: GUEST
Subj: 2Line Orbital Elements 25225.AMSAT
Path: IZ3LSV<IK6IHL<IK7NXU<HB9ON<HB9ON<PI8ZTM<VK2IO<VK2RZ<LU9DCE<EA2RCF<
      I0OJJ
Sent: 250813/0025z @:I0OJJ.ITA.EU [Rome] obcm1.08-10-g596e
From: I0OJJ @ I0OJJ.ITA.EU (Gustavo)
To:   KEPS @ AMSAT
X-Info: This message was generated automatically


QST de W1STR

AMSAT Orbital Elements for Amateur Satellites in TLE Format
From Orbital Analysis Office
New England Sci-Tech STEM Education Center
Natick, MA August 13, 2025
To all radio amateurs


These element sets describe the orbits of various satellites 
in use by the amateur radio community. For details see:
www.amsat.org/keplerian-elements-formats/

A daily update of element sets is available at:
www.amsat.org/tle/daily-bulletin.txt
or without bulletin text:
www.amsat.org/tle/dailytle.txt


AO-07
1 07530U 74089B   25224.57545731 -.00000042  00000-0  27481-4 0  9998
2 07530 101.9959 229.5248 0012290   2.0521 109.9594 12.53690780321843
UO-11
1 14781U 84021B   25224.48897304  .00001304  00000-0  14246-3 0  9992
2 14781  97.7597 189.6168 0009192 119.6317 240.5818 14.89545110211151
AO-27
1 22825U 93061C   25224.62359532  .00000104  00000-0  57063-4 0  9998
2 22825  98.7323 286.4849 0007282 287.5887  72.4500 14.30817084662871
FO-29
1 24278U 96046B   25224.63271257 -.00000009  00000-0  25628-4 0  9993
2 24278  98.5660 110.0750 0349971 176.4832 183.8892 13.53251734431435
NOAA-15
1 25338U 98030A   25224.61820684  .00000173  00000-0  88675-4 0  9990
2 25338  98.5336 248.2023 0010564 165.4426 194.7061 14.27010583417283
GO-32
1 25397U 98043D   25224.54755930  .00000061  00000-0  46702-4 0  9993
2 25397  98.9759 205.0179 0002051  53.6270 306.5097 14.24328749407397
ISS
1 25544U 98067A   25224.47423135  .00010254  00000-0  18430-3 0  9995
2 25544  51.6349  28.0780 0001172 181.8871 178.2114 15.50477111523893
NO-44
1 26931U 01043C   25224.56362861  .00000150  00000-0  87340-4 0  9993
2 26931  67.0525 322.4056 0006659 276.3688  83.6655 14.31761293246266
SO-50
1 27607U 02058C   25224.60403143  .00001071  00000-0  14956-3 0  9990
2 27607  64.5541   2.8800 0063086 320.3054  39.3442 14.81778914218711
CO-55
1 27844U 03031E   25224.61971159  .00000304  00000-0  15141-3 0  9998
2 27844  98.6774 232.0707 0009778   9.2953 350.8405 14.24038904147752
CO-57
1 27848U 03031J   25224.45757627  .00000257  00000-0  13254-3 0  9996
2 27848  98.6803 231.8679 0010040  26.6264 333.5428 14.23367479147457
RS-22
1 27939U 03042A   25224.61942226  .00001154  00000-0  18998-3 0  9995
2 27939  98.3338  35.6422 0011767 161.3218 271.9130 14.72485491170121
CO-58
1 28895U 05043F   25224.38617480  .00001705  00000-0  28464-3 0  9996
2 28895  98.2581   9.5691 0015674 104.0621 256.2329 14.71202069 56321
CO-65
1 32785U 08021C   25224.57867073  .00005398  00000-0  38455-3 0  9997
2 32785  97.7910 196.2562 0009639  10.2486 349.8934 15.04990400938708
CO-66
1 32791U 08021J   25224.45567219  .00012366  00000-0  57582-3 0  9995
2 32791  97.7322 205.9953 0001854 344.0288  16.0888 15.20068065940191
RS-30
1 32953U 08025A   25224.54370542  .00000017  00000-0  49754-4 0  9993
2 32953  82.5043 187.4020 0017884 266.7806  93.1228 12.43166989781348
NOAA-19
1 33591U 09005A   25224.62390650  .00000156  00000-0  10732-3 0  9999
2 33591  98.9934 289.6761 0013874 178.5561 181.5653 14.13395494850892
SRMSAT
1 37841U 11058D   25224.45403731  .00000412  00000-0  80121-4 0  9993
2 37841  19.9714 128.0120 0011764  48.2702 107.6944 14.11452065714149
ZACUBE-1
1 39417U 13066B   25224.42409634  .00004643  00000-0  39948-3 0  9990
2 39417  97.7838 181.1346 0043316 196.0351 163.9502 14.97151592634467
Delfi-N3xt
1 39428U 13066N   25224.21259087  .00005174  00000-0  52001-3 0  9999
2 39428  97.8306 141.1707 0084561 149.7958 210.8173 14.89017921628548
GOMX-1
1 39430U 13066Q   25224.56850783  .00001731  00000-0  27379-3 0  9995
2 39430  97.6776  79.2932 0131827 348.2951  11.5198 14.67864388624797
LO-74
1 39440U 13066AA  25224.60394734  .00004818  00000-0  48393-3 0  9998
2 39440  97.8518 168.7448 0060535 330.3082  29.4704 14.90382873630972
AO-73
1 39444U 13066AE  25224.53868021  .00005526  00000-0  40703-3 0  9993
2 39444  97.7862 186.7450 0041996 167.2881 192.9413 15.03051058633197
DTUSAT-2
1 40030U 14033W   25224.36341958  .00006565  00000-0  41933-3 0  9997
2 40030  98.0595 199.3160 0008672 192.9252 167.1754 15.08994279606015
EO-80
1 40032U 14033Y   25224.44674841  .00006297  00000-0  40144-3 0  9993
2 40032  98.0488 198.9696 0009992 135.9682 224.2343 15.09072460606005
LILACSAT-2
1 40908U 15049K   25224.56576943  .00011435  00000-0  28616-3 0  9990
2 40908  97.5040 246.5088 0006910 293.2108  66.8409 15.40246644548075
IO-86
1 40931U 15052B   25151.18580175  .00001241  00000-0  78118-4 0  9996
2 40931   6.0006  24.0987 0012733 338.8432  21.1169 14.78805930523159
Horyu-4
1 41340U 16012D   25223.87892807  .00026693  00000-0  65608-3 0  9999
2 41340  30.9964  65.4934 0007597   0.5933 359.4721 15.39387584522546
Lapan A3
1 41603U 16040E   25224.59255639  .00003595  00000-0  12508-3 0  9995
2 41603  97.1392 226.7092 0012223  48.5154 311.7134 15.30253879507579
CAS-2T
1 41847U 16066G   25224.44972996  .00000761  00000-0  11759-3 0  9998
2 41847  98.4170 298.3477 0345212 345.4624  13.6826 14.43647921460232
CAS-4B
1 42759U 17034B   25224.50442807  .00097413  00000-0  68494-3 0  9995
2 42759  43.0041 298.4843 0021779  16.6746 343.4834 15.72776048452631
CAS-4A
1 42761U 17034D   25224.47262735  .00120171  00000-0  76783-3 0  9992
2 42761  43.0078 294.9474 0022656  21.6792 338.5032 15.74873189452650
TechnoSat
1 42829U 17042E   25224.40462482  .00003946  00000-0  30374-3 0  9996
2 42829  97.3975  30.0717 0018112  66.2823 294.0301 15.02091079440309
AO-91
1 43017U 17073E   25224.61127863  .00007151  00000-0  36215-3 0  9996
2 43017  97.5151  93.7715 0168321 308.6938  49.9335 15.05733317418848
S-Net D
1 43186U 18014G   25224.62334995  .00005491  00000-0  32003-3 0  9992
2 43186  97.5545 126.8756 0009267  16.4613 343.6917 15.12362514412054
S-Net B
1 43187U 18014H   25224.49726045  .00004924  00000-0  28753-3 0  9996
2 43187  97.5552 126.7259 0009829  11.8625 348.2835 15.12341200412033
S-Net A
1 43188U 18014J   25224.62351417  .00005491  00000-0  32000-3 0  9999
2 43188  97.5560 127.0093 0009717  11.9360 348.2099 15.12368162412056
S-Net C
1 43189U 18014K   25223.97050350  .00004656  00000-0  27211-3 0  9999
2 43189  97.5578 126.3880 0011047   5.9077 354.2282 15.12333232410508
Ten-Koh
1 43677U 18084G   25224.47233344  .00002406  00000-0  19437-3 0  9992
2 43677  98.0841  39.2575 0008442  60.8965 299.3102 15.00833013369820
PO-101
1 43678U 18084H   25224.56078423  .00002248  00000-0  19287-3 0  9995
2 43678  98.1058  43.1483 0008755  78.5313 281.6891 14.98573841369964
QO-100
1 43700U 18090A   25224.54485869  .00000145  00000-0  00000-0 0  9996
2 43700   0.0148  94.2670 0001120  55.2294  33.6824  1.00270679 24585
MinXSS-2
1 43758U 18099A   25224.43697229  .00015554  00000-0  57997-3 0  9991
2 43758  97.4971 290.7408 0009854 290.8960  69.1223 15.27475597366714
AO-95
1 43770U 18099N   25224.60138476  .00008823  00000-0  43355-3 0  9992
2 43770  97.4862 282.0048 0009848 358.3535   1.7665 15.18242607366268
SNUSat 2
1 43782U 18099AA  25224.40936030  .00007042  00000-0  37575-3 0  9994
2 43782  97.4547 278.0381 0010138 294.9142  65.1037 15.15414393366165
SnugLite
1 43784U 18099AC  25224.61749053  .00009672  00000-0  47086-3 0  9995
2 43784  97.4360 277.9401 0001787 300.0126  60.0931 15.18575770366350
ITASat 1
1 43786U 18099AE  25224.55399741  .00006497  00000-0  36433-3 0  9991
2 43786  97.4514 277.4973 0013506 351.8677   8.2334 15.13636266366139
EAGLET 1
1 43790U 18099AJ  25224.59499207  .00003729  00000-0  23613-3 0  9999
2 43790  97.4712 277.2743 0011005 337.4066  22.6677 15.09522209365721
ESEO
1 43792U 18099AL  25224.59277890  .00001714  00000-0  13223-3 0  9991
2 43792  97.4448 269.6674 0010487 309.1002  50.9290 15.02826185365432
CSIM
1 43793U 18099AM  25221.21166546  .13619297  25930-5  68059-3 0  9999
2 43793  97.4554 304.9540 0017217 272.8328  87.1002 16.40904822367265
JO-97
1 43803U 18099AX  25224.11785133  .00012940  00000-0  56760-3 0  9992
2 43803  97.4609 282.6634 0005736 281.7714  78.2879 15.22087196366431
Suomi 100
1 43804U 18099AY  25224.10673258  .00009775  00000-0  46373-3 0  9997
2 43804  97.4676 281.7594 0010511 287.3828  72.6257 15.19430033366342
ISAT
1 43879U 18111D   25224.54911608  .00021775  00000-0  70273-3 0  9996
2 43879  97.5899 140.4354 0006895 349.9597  10.1505 15.32135080363489
UWE-4
1 43880U 18111E   25224.51106954  .00016285  00000-0  60508-3 0  9995
2 43880  97.5844 138.4048 0010816 357.9786   2.1407 15.27575153363389
Sparrow
1 43881U 18111F   25224.21590627  .00022459  00000-0  69441-3 0  9992
2 43881  97.6055 143.2288 0007122  36.0648 324.1073 15.33497595363536
Prox-1
1 44339U 19036A   25224.04229091  .00012409  00000-0  15278-2 0  9995
2 44339  23.9976   4.5838 0007994  72.9654 287.1719 14.81087381327436
Taurus 1
1 44530U 19059C   25224.53641951  .00006713  00000-0  12196-2 0  9997
2 44530  98.6139   7.0151 0009431 190.9804 169.1194 14.66494219313314
Duchifat 3
1 44854U 19089C   25224.43468810  .00058305  00000-0  93318-3 0  9999
2 44854  36.9410 307.6604 0004966 116.9539 243.1727 15.52058082312924
TO-108
1 44881U 19093C   25224.54406059  .00000890  00000-0  10851-3 0  9990
2 44881  97.7893 298.8503 0014320  27.2820 332.9145 14.85713829305571
FloripaSat 1
1 44885U 19093G   25224.50733385  .00005490  00000-0  45696-3 0  9991
2 44885  97.8138 312.2601 0009439 353.2051   6.9042 14.99054272306324
RS-44
1 44909U 19096E   25224.58440223  .00000020  00000-0  28233-4 0  9998
2 44909  82.5229 184.7568 0218018 145.6624 215.8793 12.79742393262870
UPMSat 2
1 46276U 20061E   25224.48729787  .00121151  00000-0  68579-3 0  9990
2 46276  97.2367 301.4218 0001476 202.5977 157.5226 15.78742223275519
